Flag for Germany Weather past 2 weeks in Bergkamen, North Rhine-Westphalia, Germany

Now
54 °F

Sunny.


Feels Like: 50 °F
Forecast: 66 / 88 °F
Wind: 12 mph from South

Location: Dortmund / Wickede

Current Time: Aug 29, 2015 at 8:50:42 AM

Latest Report: Aug 29, 2015 at 7:50 AM


Visibility: 10 mi

Pressure: 30.18 "Hg

Humidity: 82%

Dew point: 48 °F

Location of BergkamenLocation

Historic Weather in Bergkamen — Graph

°F

Bergkamen temperature yesterday

Maximum temperature yesterday: 68 °F (at 4:20 PM)
Minimum temperature yesterday: 54 °F (at 6:50 AM)
Average temperature yesterday: 62 °F

Past Weeks' High & Low Weather Summary

 TemperatureHumidityPressure
High81 °F (Aug 14, 5:20 PM)94% (Aug 16, 6:20 AM)30.24 "Hg (Aug 16, 6:20 AM)
Low50 °F (Aug 19, 5:20 AM)26% (Aug 22, 4:50 PM)29.56 "Hg (Aug 24, 2:50 PM)
Average65 °F66%29.94 "Hg
* Reported Aug 14 7:20 AM — Aug 29 7:20 AM, Bergkamen, Weather by CustomWeather, © 2015

Note: Actual official high and low records may vary slightly from our data, if they occured in-between our weather recording intervals... More about our weather records

Advertising

Bergkamen weather history for previous 24 hours

 ConditionsComfort  
Time TempWeatherWind HumidityBarometerVisibility
7:20 AM
Sat, Aug 29
52 °FClear.8 mph88%30.21 "Hg10 mi
6:50 AM52 °FClear.8 mph88%30.18 "Hg10 mi
6:20 AM52 °FClear.8 mph88%30.18 "Hg10 mi
5:50 AM52 °FClear.10 mph88%30.18 "Hg10 mi
10:50 PM
Fri, Aug 28
57 °FClear.8 mph77%30.15 "Hg10 mi
10:20 PM57 °FClear.6 mph72%30.15 "Hg10 mi
9:50 PM61 °FClear.6 mph72%30.15 "Hg10 mi
9:20 PM59 °FSunny.8 mph72%30.12 "Hg10 mi
8:50 PM59 °FSunny.5 mph77%30.12 "Hg10 mi
8:20 PM63 °FSunny.5 mph68%30.12 "Hg10 mi
7:50 PM64 °FSunny.5 mph60%30.12 "Hg10 mi
7:20 PM66 °FPassing clouds.6 mph56%30.09 "HgN/A
6:50 PM66 °FPassing clouds.5 mph56%30.09 "HgN/A
6:20 PM68 °FPassing clouds.7 mph56%30.09 "HgN/A
5:50 PM66 °FPassing clouds.8 mph56%30.09 "HgN/A
5:20 PM68 °FScattered clouds.5 mph56%30.09 "HgN/A
4:50 PM68 °FScattered clouds.5 mph53%30.09 "HgN/A
4:20 PM68 °FScattered clouds.6 mph53%30.09 "HgN/A
3:50 PM66 °FScattered clouds.9 mph56%30.09 "HgN/A
3:20 PM66 °FScattered clouds.9 mph52%30.07 "HgN/A
2:50 PM66 °FScattered clouds.9 mph56%30.07 "HgN/A
2:20 PM64 °FScattered clouds.8 mph64%30.07 "HgN/A
1:50 PM66 °FScattered clouds.5 mph56%30.07 "HgN/A
1:20 PM64 °FPassing clouds.7 mph64%30.07 "HgN/A
12:50 PM64 °FScattered clouds.9 mph60%30.07 "HgN/A
12:20 PM64 °FPassing clouds.6 mph64%30.07 "HgN/A
11:50 AM63 °FSunny.9 mph64%30.04 "Hg10 mi
11:20 AM63 °FScattered clouds.8 mph68%30.04 "HgN/A
10:50 AM61 °FScattered clouds.9 mph72%30.04 "HgN/A
10:20 AM59 °FScattered clouds.8 mph77%30.04 "HgN/A
9:50 AM59 °FScattered clouds.6 mph82%30.04 "HgN/A
9:20 AM59 °FPassing clouds.8 mph82%30.01 "HgN/A
8:50 AM57 °FPassing clouds.8 mph82%30.01 "Hg6 mi
8:20 AM57 °FPassing clouds.6 mph82%30.01 "HgN/A
Weather by CustomWeather, © 2015

See weather overviewHow to use our weather pages